Weather History for KLAM - April, 2013

Change the Weather History Date:

Wednesday, April 10, 2013

  Actual Average Record
Temperature  
Mean Temperature 35 °F -  
Max Temperature 42 °F 59 °F 74 °F (1972)
Min Temperature 28 °F 32 °F 19 °F (1959)
Degree Days  
Heating Degree Days 30    
Moisture  
Dew Point 27 °F    
Average Humidity 79    
Maximum Humidity 100    
Minimum Humidity 41    
Precipitation  
Precipitation 0.02 in - - ()
Sea Level Pressure  
Sea Level Pressure 29.90 in    
Wind  
Wind Speed 6 mph (SSW)    
Max Wind Speed 16 mph    
Max Gust Speed 26 mph    
Visibility 8 miles    
Events Fog , Snow    
Averages and records for this station are not official NWS values.
T = Trace of Precipitation, MM = Missing Value Source: NWS Daily Summary

Daily Weather History Graph

Daily Weather History Graph

Search for Another Location

Airport or City:

Trip Planner

Search our weather history database for the weather conditions in past years. The results will help you decide how hot, cold, wet, or windy it might be!

Date:

Astronomy

Apr. 10, 2013 Rise Set
Actual Time 6:38 AM MDT 7:34 PM MDT
Civil Twilight 6:12 AM MDT 8:00 PM MDT
Nautical Twilight 5:41 AM MDT 8:31 PM MDT
Astronomical Twilight 5:09 AM MDT 9:03 PM MDT
Moon 6:37 AM MDT (4/10) 8:11 PM MDT (4/10)
Length of Visible Light 13h 48m
Length of Day
12h 56m
New Moon, 0% of the Moon is Illuminated
Apr 10
New Moon
Apr 18
First Quarter
Apr 25
Full
May 2
Last Quarter
May 9
New

Hourly Weather History & Observations

Time (MDT) Temp. Windchill Dew Point Humidity Pressure Visibility Wind Dir Wind Speed Gust Speed Precip Events Conditions
12:15 AM 31.5 °F 24.2 °F 31.5 °F 100% 29.86 in 5.0 mi South 8.1 mph - N/A Snow Light Snow
12:35 AM 31.6 °F 25.1 °F 31.6 °F 100% 29.86 in 7.0 mi South 6.9 mph - N/A   Overcast
12:55 AM 31.6 °F 26.0 °F 31.6 °F 100% 29.87 in 10.0 mi South 5.8 mph - N/A   Overcast
1:15 AM 32.0 °F 26.4 °F 32.0 °F 100% 29.87 in 5.0 mi South 5.8 mph - N/A   Overcast
1:35 AM 31.8 °F 26.2 °F 31.8 °F 100% 29.88 in 10.0 mi South 5.8 mph - N/A   Overcast
1:55 AM 31.8 °F 28.5 °F 31.8 °F 100% 29.88 in 10.0 mi South 3.5 mph - N/A   Overcast
2:15 AM 32.0 °F 26.4 °F 32.0 °F 100% 29.87 in 10.0 mi South 5.8 mph - N/A   Overcast
2:35 AM 32.0 °F 27.5 °F 32.0 °F 100% 29.86 in 4.0 mi SSE 4.6 mph - N/A Snow Light Snow
2:55 AM 31.6 °F 25.1 °F 31.6 °F 100% 29.86 in 7.0 mi South 6.9 mph - N/A   Overcast
3:15 AM 31.3 °F 25.6 °F 31.3 °F 100% 29.86 in 2.5 mi South 5.8 mph - N/A   Overcast
3:35 AM 30.9 °F 27.5 °F 30.9 °F 100% 29.87 in 5.0 mi SSE 3.5 mph - N/A Snow Light Snow
3:55 AM 30.6 °F 24.7 °F 30.6 °F 100% 29.87 in 1.8 mi South 5.8 mph - N/A   Overcast
4:15 AM 30.2 °F 23.4 °F 30.2 °F 100% 29.87 in 0.8 mi South 6.9 mph - N/A   Overcast
4:35 AM 29.8 °F 23.0 °F 29.8 °F 100% 29.87 in 7.0 mi South 6.9 mph - N/A   Overcast
4:55 AM 29.7 °F 22.8 °F 29.7 °F 100% 29.87 in 5.0 mi South 6.9 mph - N/A   Overcast
5:15 AM 29.8 °F 23.0 °F 29.8 °F 100% 29.87 in 5.0 mi South 6.9 mph - N/A   Overcast
5:35 AM 29.7 °F 24.7 °F 29.7 °F 100% 29.87 in 3.0 mi South 4.6 mph - N/A   Overcast
5:55 AM 29.3 °F 23.2 °F 29.3 °F 100% 29.87 in 0.8 mi South 5.8 mph - N/A   Overcast
6:15 AM 29.3 °F 24.3 °F 29.3 °F 100% 29.87 in 0.5 mi South 4.6 mph - N/A Fog Light Freezing Fog
6:35 AM 28.9 °F 21.9 °F 28.9 °F 100% 29.88 in 0.2 mi SSE 6.9 mph - N/A Fog Light Freezing Fog
6:55 AM 28.9 °F 21.1 °F 28.9 °F 100% 29.89 in - South 8.1 mph - N/A   Overcast
7:15 AM 28.9 °F 25.2 °F 28.9 °F 100% 29.90 in - South 3.5 mph - N/A   Overcast
7:35 AM 28.4 °F 23.3 °F 28.4 °F 100% 29.91 in - South 4.6 mph - N/A   Overcast
7:55 AM 28.6 °F - 28.6 °F 100% 29.92 in - Calm Calm - N/A   Overcast
8:15 AM 28.9 °F 22.8 °F 28.9 °F 100% 29.92 in - SE 5.8 mph - N/A   Overcast
8:35 AM 29.1 °F 25.4 °F 29.1 °F 100% 29.93 in - South 3.5 mph - N/A   Overcast
8:55 AM 29.1 °F 25.4 °F 29.1 °F 100% 29.93 in - SSE 3.5 mph - N/A   Overcast
9:15 AM 29.1 °F 24.1 °F 29.1 °F 100% 29.93 in - SSE 4.6 mph - N/A   Overcast
9:35 AM 29.1 °F 25.4 °F 29.1 °F 100% 29.94 in - SSW 3.5 mph - N/A   Overcast
9:55 AM 29.7 °F 26.1 °F 29.7 °F 100% 29.94 in - SSE 3.5 mph - N/A   Overcast
10:15 AM 30.0 °F - 30.0 °F 100% 29.94 in - Calm Calm - N/A   Overcast
10:35 AM 30.4 °F - 30.4 °F 100% 29.94 in 1.8 mi Calm Calm - N/A   Overcast
11:15 AM 31.1 °F 26.4 °F 31.1 °F 100% 29.93 in 10.0 mi SSE 4.6 mph - N/A   Overcast
11:35 AM 31.3 °F 25.6 °F 31.3 °F 100% 29.93 in 10.0 mi SSE 5.8 mph - N/A   Overcast
11:55 AM 32.0 °F 26.4 °F 32.0 °F 100% 29.93 in 10.0 mi SSE 5.8 mph - N/A   Overcast
12:15 PM 32.7 °F 29.6 °F 32.7 °F 100% 29.92 in 7.0 mi SSE 3.5 mph - N/A Snow Light Snow
12:35 PM 34.0 °F - 34.0 °F 100% 29.92 in - Calm Calm - N/A   Overcast
12:55 PM 35.2 °F 32.4 °F 34.3 °F 97% 29.91 in 7.0 mi ESE 3.5 mph - N/A   Overcast
1:15 PM 37.6 °F - 35.1 °F 91% 29.91 in 10.0 mi Calm Calm - N/A   Overcast
1:35 PM 39.0 °F 35.7 °F 34.3 °F 83% 29.90 in 10.0 mi North 4.6 mph - N/A   Overcast
1:55 PM 40.5 °F 34.6 °F 28.0 °F 61% 29.89 in 10.0 mi NW 9.2 mph 19.6 mph N/A   Overcast
2:15 PM 42.4 °F 35.3 °F 26.6 °F 54% 29.90 in 10.0 mi West 13.8 mph 19.6 mph N/A   Overcast
2:35 PM 42.1 °F 34.9 °F 24.8 °F 50% 29.90 in 10.0 mi West 13.8 mph 18.4 mph N/A   Overcast
2:55 PM 41.0 °F 33.9 °F 24.6 °F 52% 29.90 in 10.0 mi WNW 12.7 mph 18.4 mph N/A   Mostly Cloudy
3:15 PM 41.7 °F 34.1 °F 23.2 °F 48% 29.89 in 10.0 mi West 15.0 mph 25.3 mph N/A   Scattered Clouds
3:35 PM 41.7 °F 33.7 °F 23.2 °F 48% 29.89 in 10.0 mi WSW 16.1 mph 26.5 mph N/A   Clear
3:55 PM 41.2 °F 34.5 °F 23.0 °F 48% 29.89 in 10.0 mi West 11.5 mph 24.2 mph N/A   Scattered Clouds
4:15 PM 39.7 °F 33.2 °F 22.1 °F 49% 29.88 in 10.0 mi WNW 10.4 mph 17.3 mph N/A   Scattered Clouds
4:35 PM 39.9 °F 33.4 °F 22.5 °F 50% 29.89 in 10.0 mi WNW 10.4 mph - N/A   Clear
4:55 PM 40.3 °F 36.3 °F 21.7 °F 48% 29.88 in 10.0 mi West 5.8 mph - N/A   Clear
5:15 PM 41.0 °F 34.7 °F 21.2 °F 45% 29.88 in 10.0 mi WSW 10.4 mph - N/A   Clear
5:35 PM 40.6 °F 36.7 °F 20.3 °F 44% 29.88 in 10.0 mi West 5.8 mph - N/A   Clear
5:55 PM 40.8 °F 38.8 °F 19.9 °F 43% 29.88 in 10.0 mi WSW 3.5 mph - N/A   Clear
6:15 PM 41.0 °F 37.1 °F 18.7 °F 41% 29.88 in 10.0 mi SW 5.8 mph - N/A   Clear
6:35 PM 40.8 °F 36.9 °F 20.1 °F 44% 29.89 in 10.0 mi WSW 5.8 mph - N/A   Clear
6:55 PM 40.1 °F 34.7 °F 22.8 °F 50% 29.89 in 10.0 mi West 8.1 mph - N/A   Clear
7:15 PM 38.5 °F 32.1 °F 23.4 °F 55% 29.90 in 10.0 mi West 9.2 mph - N/A   Scattered Clouds
7:35 PM 36.7 °F 29.4 °F 21.6 °F 54% 29.91 in 10.0 mi West 10.4 mph - N/A   Mostly Cloudy
7:55 PM 36.0 °F 28.5 °F 21.6 °F 56% 29.92 in 10.0 mi West 10.4 mph 16.1 mph N/A   Scattered Clouds
8:15 PM 35.2 °F 25.4 °F 21.6 °F 58% 29.93 in 10.0 mi West 16.1 mph 21.9 mph N/A   Scattered Clouds
8:35 PM 36.0 °F 28.5 °F 20.1 °F 53% 29.94 in 10.0 mi WSW 10.4 mph 24.2 mph N/A   Scattered Clouds
8:55 PM 35.6 °F 29.2 °F 20.3 °F 54% 29.93 in 10.0 mi SW 8.1 mph - N/A   Scattered Clouds
9:15 PM 35.4 °F 30.5 °F 21.2 °F 56% 29.94 in 10.0 mi WNW 5.8 mph - N/A   Clear
9:35 PM 34.3 °F 29.2 °F 21.7 °F 60% 29.95 in 10.0 mi NNE 5.8 mph - N/A   Mostly Cloudy
9:55 PM 34.3 °F - 21.7 °F 60% 29.96 in 10.0 mi Calm Calm - N/A   Scattered Clouds
10:15 PM 34.0 °F 29.8 °F 21.6 °F 60% 29.96 in 10.0 mi SE 4.6 mph - N/A   Clear
10:35 PM 33.4 °F - 21.7 °F 62% 29.97 in 10.0 mi Calm Calm - N/A   Clear
10:55 PM 33.6 °F - 21.9 °F 62% 29.96 in 10.0 mi Calm Calm - N/A   Clear
11:15 PM 32.9 °F - 21.9 °F 64% 29.96 in 10.0 mi Calm Calm - N/A   Scattered Clouds
11:35 PM 33.1 °F 30.0 °F 22.1 °F 64% 29.96 in 10.0 mi SE 3.5 mph - N/A   Scattered Clouds
11:55 PM 33.1 °F 30.0 °F 22.1 °F 64% 29.95 in 10.0 mi SSE 3.5 mph - N/A   Clear